CW4132 Weather Reports


time (UTC)temp
C
wind
direction
speed
KPH
gust
KPH
rain 1hr
cm
rain 24hr
cm
rain mn
cm
humidity
%
barometer
mb
20260505181553 27 294 0.0 16.1 0.00 0.00 0.00 38 1017.1
20260505180038 26 182 0.0 20.9 0.00 0.00 0.00 41 1017.3
20260505174522 27 220 0.0 14.5 0.00 0.00 0.00 40 1017.3
20260505173028 27 211 0.0 14.5 0.00 0.00 0.00 39 1017.2
20260505171548 26 150 0.0 14.5 0.00 0.00 0.00 39 1017.4
20260505170036 26 194 1.6 16.1 0.00 0.00 0.00 38 1017.7
20260505164537 26 236 0.0 14.5 0.00 0.00 0.00 40 1017.7
20260505163010 26 200 6.4 20.9 0.00 0.00 0.00 40 1017.7
20260505161546 25 222 0.0 0.0 0.00 0.00 0.00 43 1017.8
20260505153108 24 171 0.0 12.9 0.00 0.00 0.00 47 1018.2
20260505151545 24 299 3.2 14.5 0.00 0.00 0.00 47 1018.3
20260505130103 17 271 1.6 9.7 0.00 0.00 0.00 68 1018.2
20260505124547 16 295 0.0 12.9 0.00 0.00 0.00 70 1018.2
20260505123031 16 199 0.0 0.0 0.00 0.00 0.00 72 1018.2
20260505121517 15 229 0.0 0.0 0.00 0.00 0.00 74 1018.3
20260505120100 15 264 0.0 0.0 0.00 0.00 0.00 74 1018.2
20260505120000 15 264 0.0 0.0 0.00 0.00 0.00 75 1018.0
20260505114545 14 279 0.0 0.0 0.00 0.00 0.00 75 1018.1
20260505113031 13 217 0.0 0.0 0.00 0.00 0.00 77 1018.0
20260505111515 13 217 0.0 0.0 0.00 0.00 0.00 76 1017.9
20260505101519 13 235 0.0 0.0 0.00 0.00 0.00 75 1017.2
20260505100013 13 235 0.0 0.0 0.00 0.00 0.00 75 1017.1
20260505094559 13 236 0.0 0.0 0.00 0.00 0.00 74 1017.1
20260505093037 13 205 0.0 0.0 0.00 0.00 0.00 73 1017.1
20260505091524 13 217 0.0 0.0 0.00 0.00 0.00 73 1017.0
20260505090007 14 223 0.0 0.0 0.00 0.00 0.00 73 1016.9
20260505084553 14 223 0.0 0.0 0.00 0.00 0.00 72 1016.7
20260505083041 14 213 0.0 0.0 0.00 0.00 0.00 72 1016.9
20260505081513 15 213 0.0 0.0 0.00 0.00 0.00 71 1016.9
20260505080057 15 227 0.0 0.0 0.00 0.00 0.00 70 1016.7
20260505074550 15 225 0.0 0.0 0.00 0.00 0.00 69 1016.6
20260505073023 15 175 0.0 0.0 0.00 0.00 0.00 69 1016.7
20260505071519 15 190 0.0 0.0 0.00 0.00 0.00 68 1016.6
20260505070049 16 233 0.0 0.0 0.00 0.00 0.00 67 1016.6
20260505064538 16 240 0.0 0.0 0.00 0.00 0.00 67 1016.5
20260505063028 16 229 0.0 0.0 0.00 0.00 0.00 66 1016.5
20260505061515 16 269 0.0 0.0 0.00 0.00 0.00 65 1016.5
20260505060045 16 299 0.0 0.0 0.00 0.00 0.00 65 1016.5
20260505054529 17 193 0.0 0.0 0.00 0.00 0.00 64 1016.4
20260505053013 17 273 0.0 11.3 0.00 0.00 0.00 64 1016.6
20260505051559 17 199 0.0 0.0 0.00 0.00 0.00 63 1016.7
20260505051501 17 212 0.0 0.0 0.00 0.00 0.00 63 1016.7
20260505041556 18 296 1.6 16.1 0.00 0.00 0.00 61 1016.4
20260505041503 18 296 1.6 16.1 0.00 0.00 0.00 61 1016.5
20260505040041 18 238 0.0 8.0 0.00 0.00 0.00 60 1016.6
20260505034521 18 236 0.0 20.9 0.00 0.00 0.00 60 1016.5
20260505033030 18 191 0.0 0.0 0.00 0.00 0.00 60 1016.4
20260505031613 19 178 0.0 0.0 0.00 0.00 0.00 59 1016.4
20260505031501 19 207 0.0 0.0 0.00 0.00 0.00 59 1016.3
20260505030050 19 201 0.0 0.0 0.00 0.00 0.00 58 1016.5
20260505024552 20 192 0.0 0.0 0.00 0.00 0.00 56 1016.4
20260505023034 20 207 0.0 0.0 0.00 0.00 0.00 53 1016.3
20260505021528 20 196 0.0 0.0 0.00 0.00 0.00 49 1016.2
20260505020057 20 211 0.0 0.0 0.00 0.00 0.00 45 1016.1
20260505014546 21 281 0.0 0.0 0.00 0.00 0.00 44 1015.8
20260505013027 21 224 0.0 0.0 0.00 0.00 0.00 43 1015.7
20260505011518 21 206 0.0 0.0 0.00 0.00 0.00 43 1015.4
20260505010058 21 161 0.0 0.0 0.00 0.00 0.00 43 1015.2
20260505010003 21 161 0.0 0.0 0.00 0.00 0.00 43 1015.4
20260505004549 21 171 0.0 0.0 0.00 0.00 0.00 41 1015.2
20260505003026 22 170 0.0 0.0 0.00 0.00 0.00 40 1015.1
20260505001515 22 169 0.0 0.0 0.00 0.00 0.00 38 1015.0
20260505000002 22 181 0.0 0.0 0.00 0.00 0.00 37 1014.9
20260504234540 23 181 0.0 0.0 0.00 0.00 0.00 36 1014.8
20260504233034 24 181 0.0 0.0 0.00 0.00 0.00 33 1014.6
20260504231516 24 179 0.0 0.0 0.00 0.00 0.00 32 1014.5
20260504230006 25 215 0.0 0.0 0.00 0.00 0.00 32 1014.6
20260504224548 25 299 0.0 0.0 0.00 0.00 0.00 32 1014.6
20260504223036 26 279 0.0 0.0 0.00 0.00 0.00 30 1014.6
20260504221520 26 199 0.0 0.0 0.00 0.00 0.00 31 1014.6
20260504220136 26 197 0.0 0.0 0.00 0.00 0.00 30 1014.6
20260504220004 26 196 0.0 0.0 0.00 0.00 0.00 30 1014.6
20260504214551 26 173 0.0 0.0 0.00 0.00 0.00 30 1014.6
20260504213032 26 307 0.0 0.0 0.00 0.00 0.00 31 1014.7
20260504211519 26 273 0.0 0.0 0.00 0.00 0.00 32 1014.9
20260504210101 26 283 0.0 0.0 0.00 0.00 0.00 30 1014.7
20260504210007 26 157 0.0 0.0 0.00 0.00 0.00 30 1014.8
20260504204559 26 277 0.0 0.0 0.00 0.00 0.00 30 1014.8
20260504203029 26 143 0.0 0.0 0.00 0.00 0.00 31 1015.1
20260504201514 26 324 0.0 0.0 0.00 0.00 0.00 31 1015.3
20260504200110 26 207 0.0 0.0 0.00 0.00 0.00 32 1015.3
20260504194544 26 200 0.0 0.0 0.00 0.00 0.00 33 1015.5
20260504193028 25 301 0.0 0.0 0.00 0.00 0.00 33 1015.7
20260504191518 26 193 0.0 0.0 0.00 0.00 0.00 32 1015.5
20260504190056 26 234 0.0 0.0 0.00 0.00 0.00 32 1015.8
20260504184545 25 155 0.0 0.0 0.00 0.00 0.00 34 1016.0
20260504183032 24 269 0.0 0.0 0.00 0.00 0.00 31 1016.3